Home   Weather   Douala   Past weeks

Flag for Cameroon Past Weather in Douala, Cameroon — Yesterday and Last 2 Weeks

Now
77 °F

Thunderstorms. Partly cloudy.


Feels Like: 78 °F
Forecast: 72 / 87 °F
Wind: 1 mph from North

Location: Douala Obs.

Current Time: May 25, 2017 at 2:05:10 am

Latest Report: May 25, 2017 at 1:00 am


Visibility: 5 mi

Pressure: 29.89 "Hg

Humidity: 100%

Dew Point: 77 °F

Location of DoualaLocation

Past Weather in Douala — Graph

°F

Douala Temperature Yesterday

Maximum temperature yesterday: 88 °F (at 10:00 am)
Minimum temperature yesterday: 77 °F (at 12:00 am)
Average temperature yesterday: 81 °F

High & Low Weather Summary for the Past Weeks

 TemperatureHumidityPressure
High93 °F (May 18, 2:00 pm)100% (May 10, 1:00 am)29.98 "Hg (May 10, 1:00 am)
Low73 °F (May 12, 2:00 am)52% (May 14, 2:00 pm)29.74 "Hg (May 10, 4:00 pm)
Average82 °F85%29.85 "Hg
* Reported May 10 12:00 am — May 25 12:00 am, Douala. Weather by CustomWeather, © 2017

Note: Actual official high and low records may vary slightly from our data, if they occured in-between our weather recording intervals... More about our weather records

Advertising

Douala Weather History for the Previous 24 Hours

Scroll right to see more
 ConditionsComfort  
Time TempWeatherWind HumidityBarometerVisibility
12:00 am
Thu, May 25
77 °FThunderstorms. Partly cloudy.5 mph94%29.89 "Hg4 mi
11:00 pm
Wed, May 24
79 °FThunderstorms. Partly cloudy.1 mph94%29.89 "Hg2 mi
10:00 pm79 °FPassing clouds.5 mph94%29.89 "HgN/A
9:00 pm81 °FThunderstorms. Passing clouds.5 mph89%29.86 "Hg4 mi
8:00 pm81 °FThunderstorms. Partly cloudy.5 mph89%29.83 "HgN/A
7:00 pm82 °FThunderstorms. Partly cloudy.No wind89%29.80 "HgN/A
6:00 pm82 °FThunderstorms. Broken clouds.2 mph89%29.77 "HgN/A
5:00 pm84 °FThunderstorms. Broken clouds.3 mph79%29.77 "HgN/A
4:00 pm84 °FThunderstorms. Broken clouds.3 mph79%29.77 "HgN/A
3:00 pm84 °FThunderstorms. Broken clouds.3 mph84%29.80 "HgN/A
2:00 pm86 °FPartly sunny.6 mph79%29.80 "HgN/A
1:00 pm88 °FPartly sunny.3 mph75%29.83 "HgN/A
12:00 pm88 °FPartly sunny.5 mph75%29.86 "HgN/A
11:00 am84 °FPartly sunny.2 mph84%29.89 "HgN/A
10:00 am88 °FPartly sunny.2 mph70%29.89 "HgN/A
9:00 am84 °FPartly sunny.3 mph84%29.89 "HgN/A
8:00 am81 °FPartly sunny.3 mph89%29.86 "Hg5 mi
7:00 am79 °FPartly sunny.1 mph94%29.86 "Hg4 mi
6:00 am77 °FPassing clouds.2 mph100%29.83 "Hg5 mi
5:00 am77 °FPassing clouds.2 mph100%29.83 "Hg4 mi
4:00 am77 °FPassing clouds.1 mph100%29.83 "Hg4 mi
3:00 am77 °FPassing clouds.1 mph100%29.83 "Hg5 mi
2:00 am77 °FPassing clouds.No wind100%29.86 "Hg5 mi
Weather by CustomWeather, © 2017

See weather overviewHow to use our weather pages